Le nostre stazioni meteo in Italia

Pubblicità
Il mio iltempo24.it
Milano/Linate, Italia (16081): Temperatura & dewpoint: 09.11.2018 08:00:00 - 15.11.2018 08:00:00 (CET)Milano/Linate, Italia (16081): velocità del vento: 09.11.2018 08:00:00 - 15.11.2018 08:00:00 (CET)Milano/Linate, Italia (16081): direzione del vento: 09.11.2018 08:00:00 - 15.11.2018 08:00:00 (CET)Milano/Linate, Italia (16081): reduced air pressure: 09.11.2018 08:00:00 - 15.11.2018 08:00:00 (CET)Milano/Linate, Italia (16081): precipitazioni: 09.11.2018 08:00:00 - 15.11.2018 08:00:00 (CET)
Data & Tempo tt [°C] td [°C] ff [km/h] ff [kn] dd ppp [hPa] rr [mm]
15.11.2018 08:00:00 - - - - - - -
15.11.2018 07:00:00 11,7 11,7 0 0 N 1027,0 0,0
15.11.2018 06:00:00 11,5 11,5 2 1 ESE 1026,8 -
15.11.2018 05:00:00 11,5 11,5 0 0 N 1026,7 -
15.11.2018 04:00:00 11,4 11,4 2 1 NO 1026,9 -
15.11.2018 03:00:00 10,9 10,9 4 2 N 1027,3 -
15.11.2018 02:00:00 10,6 10,6 0 0 N 1027,6 -
15.11.2018 01:00:00 10,6 10,6 0 0 N 1028,0 0,0
15.11.2018 00:00:00 11,2 11,2 0 0 N 1027,9 -
14.11.2018 23:00:00 11,9 11,9 0 0 N 1027,8 -
14.11.2018 22:00:00 12,7 12,7 0 0 N 1027,9 -
14.11.2018 21:00:00 12,9 12,8 0 0 N 1027,9 -
14.11.2018 20:00:00 13,3 13,2 0 0 N 1027,6 -
14.11.2018 19:00:00 13,4 13,3 2 1 SO 1027,5 0,0
14.11.2018 18:00:00 13,3 13,2 0 0 N 1027,3 -
14.11.2018 17:00:00 14,4 14,3 2 1 SO 1027,1 -
14.11.2018 16:00:00 15,4 15,0 4 2 SSO 1027,3 -
14.11.2018 15:00:00 15,4 14,7 2 1 SSE 1027,7 -
14.11.2018 14:00:00 15,0 14,9 2 1 S 1028,2 -
14.11.2018 13:00:00 14,2 14,1 2 1 S 1029,2 0,0
14.11.2018 12:00:00 13,5 13,4 2 1 NE 1029,8 -
14.11.2018 11:00:00 13,2 13,1 2 1 NE 1030,6 -
14.11.2018 10:00:00 13,1 13,0 2 1 ESE 1030,3 -
14.11.2018 09:00:00 12,9 12,8 2 1 ESE 1029,8 -
14.11.2018 08:00:00 12,7 12,7 0 0 N 1029,3 -
14.11.2018 07:00:00 12,5 12,5 0 0 N 1028,7 0,0
14.11.2018 06:00:00 12,2 12,2 0 0 N 1028,6 -
14.11.2018 05:00:00 12,2 12,2 2 1 SSE 1028,4 -
14.11.2018 04:00:00 12,4 12,4 0 0 N 1028,5 -
14.11.2018 03:00:00 12,5 12,5 0 0 N 1028,6 -
14.11.2018 02:00:00 12,8 12,8 0 0 N 1028,3 -
14.11.2018 01:00:00 12,9 12,8 0 0 N 1028,5 0,0
14.11.2018 00:00:00 13,5 13,4 0 0 N 1028,3 -
13.11.2018 23:00:00 13,7 13,6 0 0 N 1028,2 -
13.11.2018 22:00:00 13,2 13,1 2 1 O 1028,2 -
13.11.2018 21:00:00 13,5 13,4 2 1 O 1028,0 -
13.11.2018 20:00:00 14,0 13,9 0 0 N 1027,9 -
13.11.2018 19:00:00 14,5 14,4 2 1 O 1027,7 0,0
13.11.2018 18:00:00 14,8 14,4 2 1 OSO 1027,4 -
13.11.2018 17:00:00 15,7 15,5 4 2 O 1027,1 -
13.11.2018 16:00:00 16,3 15,6 4 2 OSO 1027,1 -
13.11.2018 15:00:00 16,9 16,2 4 2 S 1026,9 -
13.11.2018 14:00:00 17,0 16,0 4 2 SSE 1027,0 -
13.11.2018 13:00:00 16,3 15,9 4 2 OSO 1027,6 0,0
13.11.2018 12:00:00 15,3 15,2 4 2 O 1028,1 -
13.11.2018 11:00:00 14,5 14,4 4 2 OSO 1028,5 -
13.11.2018 10:00:00 13,8 13,7 2 1 SO 1028,2 -
13.11.2018 09:00:00 13,5 13,4 2 1 SO 1028,0 -
13.11.2018 08:00:00 13,2 13,1 2 1 SO 1027,5 -
13.11.2018 07:00:00 12,9 12,8 2 1 SO 1027,1 -
13.11.2018 06:00:00 12,9 12,8 2 1 OSO 1027,0 -
13.11.2018 05:00:00 12,7 12,7 2 1 O 1027,0 -
13.11.2018 04:00:00 12,8 12,8 2 1 OSO 1027,1 -
13.11.2018 03:00:00 13,0 12,9 0 0 N 1027,5 -
13.11.2018 02:00:00 13,4 13,3 0 0 N 1027,5 -
13.11.2018 01:00:00 13,5 13,4 2 1 OSO 1027,6 -
13.11.2018 00:00:00 13,6 13,5 2 1 O 1027,7 -
12.11.2018 23:00:00 13,8 13,7 2 1 O 1027,8 -
12.11.2018 22:00:00 13,9 13,8 2 1 OSO 1027,5 -
12.11.2018 21:00:00 14,1 14,0 2 1 SO 1027,4 -
12.11.2018 20:00:00 14,2 14,1 2 1 O 1027,4 -
12.11.2018 19:00:00 14,3 14,2 2 1 OSO 1027,2 0,0
12.11.2018 18:00:00 14,4 14,3 4 2 OSO 1026,8 -
12.11.2018 17:00:00 14,8 14,7 4 2 OSO 1026,4 -
12.11.2018 16:00:00 15,1 15,0 2 1 OSO 1026,4 -
12.11.2018 15:00:00 15,1 15,0 2 1 NNO 1026,3 -
12.11.2018 14:00:00 14,8 14,7 2 1 O 1026,3 -
12.11.2018 13:00:00 14,7 14,6 2 1 ONO 1026,7 0,0
12.11.2018 12:00:00 14,3 14,2 2 1 OSO 1027,0 -
12.11.2018 11:00:00 14,1 14,0 2 1 O 1027,0 -
12.11.2018 10:00:00 13,7 13,6 0 0 N 1026,5 -
12.11.2018 09:00:00 13,3 13,2 2 1 SO 1026,3 -
12.11.2018 08:00:00 12,9 12,8 0 0 N 1025,8 -
12.11.2018 07:00:00 12,6 12,6 0 0 N 1025,3 0,0
12.11.2018 06:00:00 12,7 12,7 0 0 N 1024,9 -
12.11.2018 05:00:00 12,7 12,7 0 0 N 1024,9 -
12.11.2018 04:00:00 12,9 12,8 0 0 N 1024,9 -
12.11.2018 03:00:00 12,9 12,8 0 0 N 1025,0 -
12.11.2018 02:00:00 13,1 13,0 0 0 N 1024,6 -
12.11.2018 01:00:00 13,2 13,1 0 0 N 1024,8 0,0
12.11.2018 00:00:00 13,2 13,1 0 0 N 1024,6 -
11.11.2018 23:00:00 13,2 13,1 0 0 N 1024,5 -
11.11.2018 22:00:00 13,2 13,1 0 0 N 1024,4 -
11.11.2018 21:00:00 13,1 13,0 0 0 N 1023,9 -
11.11.2018 20:00:00 13,1 13,0 0 0 N 1023,5 -
11.11.2018 19:00:00 13,2 13,1 0 0 N 1023,2 -
11.11.2018 18:00:00 13,4 13,3 0 0 N 1022,7 -
11.11.2018 17:00:00 13,5 13,4 0 0 N 1022,2 -
11.11.2018 16:00:00 13,6 13,5 2 1 ENE 1021,9 -
11.11.2018 15:00:00 13,5 13,4 2 1 NNO 1021,7 -
11.11.2018 14:00:00 13,1 13,0 4 2 E 1021,6 -
11.11.2018 13:00:00 12,5 12,5 4 2 ENE 1021,4 -
11.11.2018 12:00:00 12,6 12,6 4 2 E 1021,0 -
11.11.2018 11:00:00 12,5 12,5 5 3 E 1020,7 -
11.11.2018 10:00:00 12,4 12,4 4 2 E 1020,0 -
11.11.2018 09:00:00 12,3 12,3 4 2 S 1019,6 -
11.11.2018 08:00:00 12,1 12,1 4 2 ENE 1018,7 -
11.11.2018 07:00:00 12,0 12,0 4 2 O 1018,0 -
11.11.2018 06:00:00 11,7 11,7 4 2 ENE 1017,6 -
11.11.2018 05:00:00 11,8 11,8 4 2 ENE 1017,6 -
11.11.2018 04:00:00 11,7 11,7 4 2 E 1017,4 -
11.11.2018 03:00:00 11,7 11,7 5 3 E 1017,2 -
11.11.2018 02:00:00 11,6 11,6 4 2 E 1017,1 -
11.11.2018 01:00:00 11,4 11,4 5 3 E 1017,0 -
11.11.2018 00:00:00 11,5 11,5 4 2 E 1017,3 -
10.11.2018 23:00:00 11,5 11,5 5 3 E 1017,1 -
10.11.2018 22:00:00 11,6 11,6 5 3 E 1016,9 -
10.11.2018 21:00:00 11,9 11,9 5 3 E 1016,5 -
10.11.2018 20:00:00 12,2 12,2 5 3 E 1016,3 -
10.11.2018 19:00:00 12,5 12,5 8 4 E 1016,2 -
10.11.2018 18:00:00 12,7 12,7 4 2 E 1016,3 -
10.11.2018 17:00:00 12,9 12,8 5 3 ESE 1016,1 -
10.11.2018 16:00:00 13,0 12,9 5 3 ESE 1015,8 -
10.11.2018 15:00:00 13,0 12,9 4 2 ESE 1015,8 -
10.11.2018 14:00:00 12,6 12,6 4 2 E 1016,2 -
10.11.2018 13:00:00 12,8 12,8 4 2 ESE 1016,6 -
10.11.2018 12:00:00 12,6 12,6 5 3 E 1016,9 -
10.11.2018 11:00:00 12,0 12,0 5 3 E 1017,6 -
10.11.2018 10:00:00 11,8 11,8 4 2 E 1017,6 -
10.11.2018 09:00:00 11,8 11,8 5 3 ESE 1017,5 -
10.11.2018 08:00:00 11,8 11,8 4 2 ESE 1017,3 -
10.11.2018 07:00:00 11,7 11,7 4 2 E 1017,1 -
10.11.2018 06:00:00 11,6 11,6 2 1 E 1017,3 -
10.11.2018 05:00:00 11,7 11,7 2 1 ENE 1017,3 -
10.11.2018 04:00:00 11,9 11,9 4 2 ESE 1017,5 -
10.11.2018 03:00:00 12,5 12,5 2 1 E 1017,5 -
10.11.2018 02:00:00 12,5 12,5 0 0 N 1017,7 -
10.11.2018 01:00:00 12,6 12,6 0 0 N 1018,1 0,0
10.11.2018 00:00:00 13,0 12,9 0 0 N 1018,1 -
09.11.2018 23:00:00 13,1 13,0 0 0 N 1018,5 -
09.11.2018 22:00:00 13,0 12,9 0 0 N 1018,7 -
09.11.2018 21:00:00 12,9 12,8 0 0 N 1018,6 -
09.11.2018 20:00:00 13,2 13,1 0 0 N 1018,2 -
09.11.2018 19:00:00 13,4 13,3 0 0 N 1018,3 -
09.11.2018 18:00:00 14,2 14,1 0 0 N 1018,1 -
09.11.2018 17:00:00 15,0 14,8 0 0 N 1017,9 -
09.11.2018 16:00:00 15,4 15,3 0 0 N 1018,1 -
09.11.2018 15:00:00 15,4 15,3 2 1 SSO 1018,2 -
09.11.2018 14:00:00 14,8 14,7 0 0 N 1018,5 -
09.11.2018 13:00:00 14,8 14,7 0 0 N 1018,9 -
09.11.2018 12:00:00 14,5 14,4 0 0 N 1019,6 -
09.11.2018 11:00:00 14,2 14,1 0 0 N 1020,0 -
09.11.2018 10:00:00 13,7 13,6 0 0 N 1019,8 -
09.11.2018 09:00:00 13,4 13,3 0 0 N 1019,9 -
09.11.2018 08:00:00 13,3 13,2 0 0 N 1019,8 -

tt = Temperatura
td = dewpoint
ff = velocità del vento
dd = direzione del vento
ppp = reduced air pressure
rr = precipitazioni

Stazioni seguenti

WeatherPro
AMSI
MeteoEarth